Regional Weather Roundup
Issued by NWS

Home | Current Version | Previous Version | Text Only | Print | Product List | Glossary Off
Versions: 1 2 3 4 5 6 7 8 9 10 11 12 13 14 15 16 17 18 19 20 21 22 23 24 25 26 27 28 29 30 31 32 33 34 35 36 37 38 39 40 41 42 43 44 45 46 47 48 49 50

000
ASUS43 KMKX 300100
RWRWI

WISCONSIN REGIONAL WEATHER ROUNDUP
NATIONAL WEATHER SERVICE MILWAUKEE/SULLIVAN WI
800 PM CDT TUE JUL 29 2014

NOTE: "FAIR" INDICATES FEW OR NO CLOUDS BELOW 12,000 FEET WITH NO
SIGNIFICANT WEATHER AND/OR OBSTRUCTIONS TO VISIBILITY.

WIZ001-002-006>008-014>016-023>028-300200-
NORTHWEST WISCONSIN

CITY           SKY/WX    TMP DP  RH WIND       PRES   REMARKS
SUPERIOR ARPT  LGT RAIN  65  57  75 W5        30.00F
ASHLAND        TSTM      61  59  93 E7        30.04R VSB 1
HAYWARD        MOCLDY    61  60  97 SW6       30.03F
SIREN          CLOUDY    67  55  65 E5        30.05S
RICE LAKE      LGT RAIN  62  56  81 NE13G22   30.07R
LADYSMITH      CLOUDY    60  56  88 CALM      30.05F
EAU CLAIRE     MOCLDY    69  58  67 NW7       30.01F
MENOMONIE      MOCLDY    68  54  59 SW8       30.03S
NEW RICHMOND   MOCLDY    72  55  55 NW7       30.04S
OSCEOLA        CLOUDY    74  56  54 NW6       30.06S
$$

WIZ003>005-009-010-017-018-300200-
NORTH CENTRAL WISCONSIN

CITY           SKY/WX    TMP DP  RH WIND       PRES   REMARKS
WOODRUFF       PTCLDY    64  55  71 NW5       30.02R
RHINELANDER    MOCLDY    61  56  83 W7        30.02S
EAGLE RIVER    MOCLDY    64  53  68 NW6       30.00S
LAND O LAKES   MOCLDY    64  52  64 N6        30.02R
PHILLIPS       PTCLDY    58  56  92 CALM      30.02F
TOMAHAWK       CLOUDY    58  55  89 W5        30.03S
MEDFORD        RAIN      59  55  85 NW9       30.05R
MERRILL        CLOUDY    60  57  89 W6        30.02S
$$

WIZ029-030-035-036-043>047-300200-
CENTRAL WISCONSIN

CITY           SKY/WX    TMP DP  RH WIND       PRES   REMARKS
WAUSAU         CLOUDY    61  58  90 NW8       30.00S
MOSINEE        NOT AVBL
MARSHFIELD     PTCLDY    64  60  87 W3        30.03F
STEVENS POINT  MOCLDY    64  55  74 W6        30.02S
WAUPACA        CLOUDY    64  61  91 SW5       30.01S
WAUTOMA        NOT AVBL
WISC RAPIDS    PTCLDY    64  59  83 W5        30.04S
CAMP DOUGLAS   NOT AVBL
$$

WIZ011>013-019>022-031-037>040-048>050-300200-
NORTHEAST WISCONSIN

CITY           SKY/WX    TMP DP  RH WIND       PRES   REMARKS
ANTIGO         MOCLDY    61  57  88 NW6       30.00F
STURGEON BAY   CLOUDY    64  57  77 SW6       29.96F
GREEN BAY      MOCLDY    61  59  93 W8        29.97F
MANITOWOC      NOT AVBL
APPLETON       MOCLDY    61  57  88 VRB5      30.00F
CLINTONVILLE   MOCLDY    61  59  94 SW5       29.99S
OSHKOSH        CLOUDY    62  58  86 CALM      30.00F
$$

WIZ032>034-041-042-053>061-300200-
SOUTHWEST WISCONSIN

CITY           SKY/WX    TMP DP  RH WIND       PRES   REMARKS
LA CROSSE      TSTM      64  60  87 SW10      30.07R VSB 3/4
SPARTA         CLOUDY    62  59  92 E3        30.05F
VIROQUA        CLOUDY    64  59  83 NE8G17    30.06R
BOSCOBEL       LGT RAIN  70  58  65 CALM      30.03S
PRAIRIE DU CHI CLEAR     74  54  49 W5        30.02S
PLATTEVILLE    FAIR      73  57  57 NW3       30.04S
$$

WIZ056-057-062-063-064-067-068-300200-
SOUTH CENTRAL WISCONSIN

CITY           SKY/WX    TMP DP  RH WIND       PRES   REMARKS
BARABOO/DELLS  CLOUDY    64  57  80 W6        30.03S
LONE ROCK      NOT AVBL
WATERTOWN      CLOUDY    61  58  90 NW15G33   30.02R VSB 1
MADISON        CLOUDY    65  58  78 VRB6      30.03R
MIDDLETON      CLOUDY    64  60  84 W7        30.04S
MONROE         LGT RAIN  70  55  60 N16G23    30.05R
JANESVILLE     MOCLDY    73  55  53 NW25G33   30.00R THUNDER
$$

WIZ051-052-058>065-066-070>072-300200-
SOUTHEAST WISCONSIN

CITY           SKY/WX    TMP DP  RH WIND       PRES   REMARKS
MILWAUKEE      MOCLDY    65  56  72 NE13      29.99R
WAUKESHA       CLOUDY    72  54  53 N5        30.00S
MILWAUKEE/TIMM CLOUDY    66  48  52 E9G16     30.01R
RACINE         PTCLDY    68  60  75 CALM      29.99S
BURLINGTON     PTCLDY    68  55  64 W5        29.98F
KENOSHA        CLEAR     67  58  72 SW6       29.98S
FOND DU LAC    LGT RAIN  61  56  83 CALM      30.03R
SHEBOYGAN      LGT RAIN  60  57  89 W10       30.00R
WEST BEND      HVY RAIN  59  54  82 N7        30.04R
JUNEAU         CLOUDY    64  54  71 N16G23    30.05R
$$

LSZ147-162-300200-
LAKE SUPERIOR

STATION/POSITION TIME  TEMP    WIND        PRES    WAVE
                       AIR SEA DIR/SP/G            HT/PER
                 (UTC) (F)     (DEG/KT/KT) (MB)    (FT/S)
W MID LAKE BUOY  2350   50 44  250/  6/  8 1016.0F   1
PORT WING        0000   65     200/  5/  7 1015.9
SAXON HARBOR     0000           CALM  /  2 1016.3S
$$

LMZ867-665-643>646-300200-
LAKE MICHIGAN

STATION/POSITION TIME  TEMP    WIND        PRES    WAVE
                       AIR SEA DIR/SP/G            HT/PER
                 (UTC) (F)     (DEG/KT/KT) (MB)    (FT/S)
N MID LAKE BUOY  2350   58 56  220/  4/  4 1014.0R   0
NORTHPORT PIER   0000   65     130/  1/  2 1014.2S
SISTER BAY       2340   68        CALM       N/A
ALGOMA LAKESHORE 0006          260/  8/  9   N/A
KEWAUNEE LAKESHO 0000   65     260/  5/  7 1015.3F
SHEBOYGAN LAKESH 0000   64     300/ 11/ 16 1016.4R
PORT WASHINGTON  0020   66      40/ 12/ 17 1017.3R
ATWATER BUOY     0000   65      60/ 10     1016.4R
MILWAUKEE LAKESH 0000   68     150/  7/  9   N/A
S MID LAKE BUOY  2350   63 62  200/  6/  8 1015.3F   0
KENOSHA   LAKESH 0000   65     180/  8/ 12 1014.9S
$$

TC  - TEMPERATURE IN CELSIUS
VSB - VISIBILITY IN STATUTE MILES
WCI - WIND CHILL INDEX
HX  - HEAT INDEX



USA.gov is the U.S. government's official web portal to all federal, state and local government web resources and services.